Charles City, IA

1:00 AM CST on November 22, 2017 (GMT -0600)
Charles City Municipal

Weather History for KCCY - April, 2014

Change the Weather History Date:

Tuesday, April 29, 2014

  Actual Average Record
Temperature  
Mean Temperature 38 °F -  
Max Temperature 44 °F 66 °F 91 °F (2007)
Min Temperature 33 °F 43 °F 25 °F (1958)
Degree Days  
Heating Degree Days 26    
Moisture  
Dew Point 38 °F    
Average Humidity 92    
Maximum Humidity 100    
Minimum Humidity 87    
Precipitation  
Precipitation 0.17 in - - ()
Sea Level Pressure  
Sea Level Pressure 29.56 in    
Wind  
Wind Speed 16 mph (NNE)    
Max Wind Speed 21 mph    
Max Gust Speed 28 mph    
Visibility 7 miles    
Events Rain , Snow    
Averages and records for this station are not official NWS values.
T = Trace of Precipitation, MM = Missing Value Source: NWS Daily Summary

Daily Weather History Graph

Daily Weather History Graph

Search for Another Location

Airport or City:

Trip Planner

Search our weather history database for the weather conditions in past years. The results will help you decide how hot, cold, wet, or windy it might be!

Date:

Astronomy

Apr. 29, 2014 Rise Set
Actual Time 6:06 AM CDT 8:09 PM CDT
Civil Twilight 5:36 AM CDT 8:40 PM CDT
Nautical Twilight 4:58 AM CDT 9:18 PM CDT
Astronomical Twilight 4:16 AM CDT 10:00 PM CDT
Moon 6:25 AM CDT (4/29) 8:50 PM CDT (4/29)
Length of Visible Light 15h 04m
Length of Day
14h 02m
New Moon, 0% of the Moon is Illuminated
Apr 29
New Moon
May 6
First Quarter
May 14
Full
May 21
Last Quarter
May 28
New

Hourly Weather History & Observations

Time (CDT) Temp. Windchill Dew Point Humidity Pressure Visibility Wind Dir Wind Speed Gust Speed Precip Events Conditions
12:15 AM 44.6 °F 37.4 °F 42.8 °F 93% 29.50 in 5.0 mi ENE 16.1 mph 26.5 mph N/A Rain Light Rain
12:35 AM 44.6 °F 36.9 °F 42.8 °F 93% 29.50 in 2.5 mi ENE 18.4 mph 26.5 mph N/A Rain Light Rain
12:55 AM 44.6 °F 36.4 °F 42.8 °F 93% 29.50 in 2.5 mi ENE 20.7 mph 26.5 mph 0.07 in Rain Light Rain
1:15 AM 44.6 °F 37.8 °F 42.8 °F 93% 29.50 in 2.0 mi ENE 15.0 mph 25.3 mph N/A Rain Light Rain
1:35 AM 44.6 °F 36.9 °F 42.8 °F 93% 29.50 in 2.5 mi ENE 18.4 mph 27.6 mph N/A Rain Light Rain
1:55 AM 44.6 °F 37.2 °F 42.8 °F 93% 29.50 in 2.0 mi ENE 17.3 mph 23.0 mph 0.02 in   Overcast
2:15 AM 44.6 °F 37.8 °F 42.8 °F 93% 29.49 in 2.0 mi ENE 15.0 mph 21.9 mph N/A   Overcast
2:35 AM 42.8 °F 35.4 °F 42.8 °F 100% 29.49 in 2.0 mi ENE 15.0 mph 23.0 mph N/A   Overcast
2:55 AM 42.8 °F 34.8 °F 42.8 °F 100% 29.49 in 2.5 mi East 17.3 mph - N/A   Overcast
3:15 AM 42.8 °F 35.4 °F 42.8 °F 100% 29.49 in 2.0 mi East 15.0 mph - N/A   Overcast
3:35 AM 42.8 °F 35.4 °F 42.8 °F 100% 29.48 in 2.5 mi ENE 15.0 mph - N/A   Overcast
4:15 AM 42.8 °F 35.1 °F 42.8 °F 100% 29.48 in 6.0 mi ENE 16.1 mph - N/A   Overcast
4:35 AM 42.8 °F 34.3 °F 42.8 °F 100% 29.48 in 4.0 mi ENE 19.6 mph - N/A   Overcast
4:55 AM 42.8 °F 35.4 °F 42.8 °F 100% 29.49 in 5.0 mi ENE 15.0 mph 23.0 mph N/A   Overcast
5:15 AM 42.8 °F 35.1 °F 41.0 °F 93% 29.49 in 4.0 mi ENE 16.1 mph - N/A   Overcast
5:35 AM 42.8 °F 34.8 °F 41.0 °F 93% 29.49 in 4.0 mi ENE 17.3 mph - N/A   Overcast
5:55 AM 42.8 °F 35.8 °F 41.0 °F 93% 29.48 in 5.0 mi ENE 13.8 mph - N/A   Overcast
6:15 AM 42.8 °F 35.8 °F 41.0 °F 93% 29.48 in 7.0 mi ENE 13.8 mph 20.7 mph N/A   Overcast
6:35 AM 42.8 °F 35.1 °F 41.0 °F 93% 29.49 in 8.0 mi ENE 16.1 mph - N/A   Overcast
6:55 AM 42.8 °F 35.8 °F 41.0 °F 93% 29.49 in 8.0 mi ENE 13.8 mph 21.9 mph N/A   Overcast
7:15 AM 42.8 °F 34.8 °F 41.0 °F 93% 29.49 in 9.0 mi ENE 17.3 mph - N/A   Overcast
7:55 AM 41.0 °F 32.2 °F 41.0 °F 100% 29.50 in 8.0 mi ENE 18.4 mph - N/A   Overcast
8:15 AM 41.0 °F 32.5 °F 39.2 °F 93% 29.50 in 9.0 mi NE 17.3 mph 23.0 mph N/A   Overcast
8:35 AM 41.0 °F 32.8 °F 39.2 °F 93% 29.50 in 7.0 mi NE 16.1 mph - N/A   Overcast
8:55 AM 41.0 °F 33.1 °F 39.2 °F 93% 29.50 in 8.0 mi ENE 15.0 mph - N/A   Overcast
9:15 AM 41.0 °F 33.9 °F 39.2 °F 93% 29.50 in 9.0 mi NE 12.7 mph 19.6 mph N/A   Overcast
9:35 AM 41.0 °F 33.1 °F 39.2 °F 93% 29.51 in 9.0 mi ENE 15.0 mph - N/A   Overcast
9:55 AM 41.0 °F 32.5 °F 39.2 °F 93% 29.50 in 9.0 mi NE 17.3 mph - N/A   Overcast
10:15 AM 41.0 °F 33.1 °F 39.2 °F 93% 29.51 in 10.0 mi NE 15.0 mph - N/A   Overcast
10:35 AM 41.0 °F 32.8 °F 39.2 °F 93% 29.51 in 8.0 mi NNE 16.1 mph - N/A   Overcast
10:55 AM 41.0 °F 33.1 °F 39.2 °F 93% 29.51 in 10.0 mi NE 15.0 mph 20.7 mph N/A   Overcast
11:15 AM 41.0 °F 32.8 °F 39.2 °F 93% 29.52 in 10.0 mi NE 16.1 mph - N/A   Overcast
11:35 AM 42.8 °F 36.2 °F 39.2 °F 87% 29.52 in 10.0 mi NE 12.7 mph 19.6 mph N/A   Overcast
11:55 AM 41.0 °F 33.1 °F 39.2 °F 93% 29.52 in 10.0 mi NNE 15.0 mph - N/A   Overcast
12:15 PM 41.0 °F 34.3 °F 39.2 °F 93% 29.52 in 6.0 mi NE 11.5 mph 17.3 mph N/A Rain Light Rain
12:35 PM 41.0 °F 33.5 °F 39.2 °F 93% 29.52 in 8.0 mi North 13.8 mph - N/A Rain Light Rain
12:55 PM 41.0 °F 33.5 °F 39.2 °F 93% 29.52 in 10.0 mi North 13.8 mph - N/A   Overcast
1:15 PM 41.0 °F 33.5 °F 37.4 °F 87% 29.52 in 9.0 mi North 13.8 mph - N/A Rain Light Rain
1:35 PM 41.0 °F 33.5 °F 37.4 °F 87% 29.53 in 9.0 mi North 13.8 mph - N/A   Overcast
1:55 PM 39.2 °F 30.2 °F 37.4 °F 93% 29.53 in 7.0 mi North 17.3 mph - N/A   Overcast
2:15 PM 39.2 °F 30.5 °F 37.4 °F 93% 29.55 in 9.0 mi North 16.1 mph - N/A   Overcast
2:35 PM 39.2 °F 30.2 °F 35.6 °F 87% 29.55 in 9.0 mi North 17.3 mph - N/A   Overcast
2:55 PM 39.2 °F 30.8 °F 35.6 °F 87% 29.56 in 10.0 mi North 15.0 mph - N/A   Overcast
3:15 PM 39.2 °F 31.6 °F 35.6 °F 87% 29.57 in 10.0 mi North 12.7 mph 19.6 mph N/A   Overcast
3:35 PM 39.2 °F 31.2 °F 35.6 °F 87% 29.57 in 10.0 mi North 13.8 mph - N/A   Overcast
3:55 PM 39.2 °F 30.5 °F 35.6 °F 87% 29.58 in 7.0 mi North 16.1 mph - N/A   Overcast
4:15 PM 39.2 °F 30.8 °F 35.6 °F 87% 29.58 in 9.0 mi NNE 15.0 mph - N/A   Overcast
4:35 PM 39.2 °F 31.2 °F 35.6 °F 87% 29.59 in 9.0 mi NNE 13.8 mph - N/A   Overcast
4:55 PM 39.2 °F 31.2 °F 37.4 °F 93% 29.60 in 7.0 mi North 13.8 mph - 0.01 in   Overcast
5:15 PM 39.2 °F 31.2 °F 35.6 °F 87% 29.60 in 7.0 mi North 13.8 mph - N/A   Overcast
5:35 PM 39.2 °F 32.0 °F 35.6 °F 87% 29.61 in 7.0 mi North 11.5 mph - N/A   Overcast
5:55 PM 39.2 °F 32.5 °F 37.4 °F 93% 29.62 in 7.0 mi North 10.4 mph - N/A   Overcast
6:15 PM 39.2 °F 31.6 °F 37.4 °F 93% 29.63 in 9.0 mi North 12.7 mph - N/A   Overcast
6:35 PM 39.2 °F 31.6 °F 37.4 °F 93% 29.63 in 10.0 mi North 12.7 mph - N/A   Overcast
6:55 PM 39.2 °F 32.0 °F 35.6 °F 87% 29.64 in 9.0 mi NNE 11.5 mph - N/A   Overcast
7:15 PM 39.2 °F 31.2 °F 35.6 °F 87% 29.64 in 9.0 mi North 13.8 mph - N/A   Overcast
7:35 PM 39.2 °F 33.0 °F 35.6 °F 87% 29.65 in 8.0 mi North 9.2 mph 16.1 mph N/A Rain Light Rain
7:55 PM 39.2 °F 32.0 °F 35.6 °F 87% 29.65 in - NNW 11.5 mph - 0.02 in Rain Light Rain
8:15 PM 37.4 °F 28.9 °F 35.6 °F 93% 29.66 in 6.0 mi NNW 13.8 mph - N/A Rain Light Rain
8:40 PM 37.4 °F 28.5 °F 33.8 °F 87% 29.66 in 8.0 mi NNW 15.0 mph - N/A Rain Light Rain
8:55 PM 35.6 °F 27.1 °F 33.8 °F 93% 29.67 in 8.0 mi NNW 12.7 mph - 0.02 in Rain Rain
9:15 PM 35.6 °F 26.6 °F 33.8 °F 93% 29.67 in 7.0 mi NNW 13.8 mph - N/A Rain Light Rain
9:35 PM 35.6 °F 27.1 °F 33.8 °F 93% 29.67 in 6.0 mi NNW 12.7 mph - N/A Rain Light Rain
9:55 PM 33.8 °F 23.5 °F 33.8 °F 100% 29.68 in 6.0 mi NNW 16.1 mph - 0.01 in Rain Light Rain
10:15 PM 33.8 °F 24.3 °F 32.0 °F 93% 29.68 in 3.0 mi NNW 13.8 mph - N/A Rain Light Rain
10:35 PM 33.8 °F 23.5 °F 32.0 °F 93% 29.68 in 6.0 mi NNW 16.1 mph - N/A Rain Light Rain
10:55 PM 33.8 °F 23.9 °F 32.0 °F 93% 29.68 in 2.5 mi NNW 15.0 mph 21.9 mph 0.01 in Snow Light Snow
11:15 PM 33.8 °F 24.3 °F 32.0 °F 93% 29.68 in 2.0 mi NNW 13.8 mph 19.6 mph N/A Snow Light Snow
11:35 PM 33.8 °F 24.3 °F 32.0 °F 93% 29.68 in 1.8 mi NNW 13.8 mph - N/A Snow Light Snow
11:55 PM 33.8 °F 24.8 °F 32.0 °F 93% 29.68 in 1.5 mi NNW 12.7 mph - 0.01 in Snow Light Snow